This demonstration page uses our WeatherBlox Daily Observations layout. Learn more.

Left ArrowRight Arrow

39.01783, -85.05884

Hourly Observations for April 26, 2018

Temp ( °F °C ) Dew Point ( °F °C ) Humidity (%) Winds ( mph kmh ) Pressure ( in mb ) Visibility ( mi km ) Precip ( " mm )
12:52 am 00:52 Cloudy 52 11.1 35 1.7 53 53 NNW 12 19 29.92 1013 10 16 N/A
1:52 am 01:52 Cloudy 49 9.4 35 1.7 59 59 N 9 15 29.92 1013 10 16 N/A
2:52 am 02:52 Cloudy 48 8.9 34 1.1 58 58 NNW 6 9 29.90 1013 10 16 N/A
3:52 am 03:52 Cloudy 47 8.3 33 0.6 59 59 N 6 9 29.88 1012 10 16 N/A
4:52 am 04:52 Mostly Cloudy 45 7.2 34 1.1 66 66 NW 5 7 29.88 1012 10 16 N/A
5:52 am 05:52 Mostly Cloudy 45 7.2 34 1.1 66 66 N 6 9 29.88 1012 10 16 N/A
6:52 am 06:52 Partly Cloudy 41 5 33 0.6 73 73 NNW 5 7 29.88 1012 10 16 N/A
7:52 am 07:52 Mostly Sunny 43 6.1 34 1.1 71 71 N 7 11 29.89 1012 10 16 N/A
8:52 am 08:52 Mostly Sunny 48 8.9 34 1.1 58 58 NNE 5 7 29.90 1012 10 16 N/A
9:52 am 09:52 Partly Cloudy 51 10.6 36 2.2 56 56 N N/A 29.92 1013 10 16 N/A
10:52 am 10:52 Partly Cloudy 56 13.3 39 3.9 53 53 NE 5 7 29.92 1013 10 16 N/A
11:52 am 11:52 Partly Cloudy 60 15.6 39 3.9 46 46 N N/A 29.91 1013 10 16 N/A
12:52 pm 12:52 Partly Cloudy 63 17.2 39 3.9 41 41 N N/A 29.88 1012 10 16 N/A
1:52 pm 13:52 Partly Cloudy 66 18.9 37 2.8 34 34 WSW 7 11 29.86 1011 10 16 N/A
2:52 pm 14:52 Mostly Cloudy 66 18.9 32 undefined 28 28 WNW 8 13 29.85 1011 10 16 N/A
3:52 pm 15:52 Mostly Cloudy 67 19.4 34 1.1 30 30 NNW 3 6 29.83 1010 10 16 N/A
4:52 pm 16:52 Mostly Cloudy 67 19.4 34 1.1 30 30 NW 5 7 29.81 1010 10 16 N/A
5:52 pm 17:52 Mostly Cloudy 66 18.9 32 undefined 28 28 N N/A 29.82 1010 10 16 N/A
6:52 pm 18:52 Mostly Cloudy 67 19.4 31 -0.6 26 26 N N/A 29.83 1010 10 16 N/A
7:52 pm 19:52 Mostly Cloudy 65 18.3 31 -0.6 28 28 N N/A 29.82 1010 10 16 N/A
8:52 pm 20:52 Mostly Cloudy 62 16.7 34 1.1 35 35 N N/A 29.83 1010 10 16 N/A
9:52 pm 21:52 Mostly Cloudy 58 14.4 36 2.2 44 44 N N/A 29.83 1010 10 16 N/A
10:52 pm 22:52 Partly Cloudy 55 12.8 35 1.7 47 47 NW 10 17 29.83 1010 10 16 N/A
11:52 pm 23:52 Mostly Clear 56 13.3 33 0.6 42 42 NNW 7 11 29.81 1010 10 16 N/A

Powered by AerisWeather